Year,Month,Day,Hour,Minute,Value (Times are PST for temperature in C)
2013,08,22,00,00,13.80
2013,08,22,00,01,13.80
2013,08,22,00,02,13.70
2013,08,22,00,03,13.70
2013,08,22,00,04,13.70
2013,08,22,00,05,13.70
2013,08,22,00,06,13.70
2013,08,22,00,07,13.70
2013,08,22,00,08,13.70
2013,08,22,00,09,13.60
2013,08,22,00,10,13.60
2013,08,22,00,11,13.60
2013,08,22,00,12,13.60
2013,08,22,00,13,13.60
2013,08,22,00,14,13.60
2013,08,22,00,15,13.60
2013,08,22,00,16,13.50
2013,08,22,00,17,13.50
2013,08,22,00,18,13.50
2013,08,22,00,19,13.40
2013,08,22,00,20,13.40
2013,08,22,00,21,13.40
2013,08,22,00,22,13.40
2013,08,22,00,23,13.40
2013,08,22,00,24,13.40
2013,08,22,00,25,13.30
2013,08,22,00,26,13.30
2013,08,22,00,27,13.30
2013,08,22,00,28,13.30
2013,08,22,00,29,13.30
2013,08,22,00,30,13.30
2013,08,22,00,31,13.20
2013,08,22,00,32,13.20
2013,08,22,00,33,13.20
2013,08,22,00,34,13.20
2013,08,22,00,35,13.20
2013,08,22,00,36,13.10
2013,08,22,00,37,13.10
2013,08,22,00,38,13.10
2013,08,22,00,39,13.10
2013,08,22,00,40,13.10
2013,08,22,00,41,13.10
2013,08,22,00,42,13.00
2013,08,22,00,43,13.00
2013,08,22,00,44,13.00
2013,08,22,00,45,13.00
2013,08,22,00,46,12.90
2013,08,22,00,47,12.90
2013,08,22,00,48,12.90
2013,08,22,00,49,12.90
2013,08,22,00,50,12.90
2013,08,22,00,51,12.90
2013,08,22,00,52,12.80
2013,08,22,00,53,12.80
2013,08,22,00,54,12.80
2013,08,22,00,55,12.80
2013,08,22,00,56,12.80
2013,08,22,00,57,12.80
2013,08,22,00,58,12.80
2013,08,22,00,59,12.80
2013,08,22,01,00,12.70
2013,08,22,01,01,12.70
2013,08,22,01,02,12.70
2013,08,22,01,03,12.70
2013,08,22,01,04,12.70
2013,08,22,01,05,12.70
2013,08,22,01,06,12.70
2013,08,22,01,07,12.60
2013,08,22,01,08,12.60
2013,08,22,01,09,12.60
2013,08,22,01,10,12.60
2013,08,22,01,11,12.60
2013,08,22,01,12,12.60
2013,08,22,01,13,12.60
2013,08,22,01,14,12.60
2013,08,22,01,15,12.60
2013,08,22,01,16,12.50
2013,08,22,01,17,12.50
2013,08,22,01,18,12.50
2013,08,22,01,19,12.50
2013,08,22,01,20,12.40
2013,08,22,01,21,12.40
2013,08,22,01,22,12.40
2013,08,22,01,23,12.40
2013,08,22,01,24,12.40
2013,08,22,01,25,12.40
2013,08,22,01,26,12.40
2013,08,22,01,27,12.40
2013,08,22,01,28,12.40
2013,08,22,01,29,12.30
2013,08,22,01,30,12.30
2013,08,22,01,31,12.30
2013,08,22,01,32,12.30
2013,08,22,01,33,12.30
2013,08,22,01,34,12.30
2013,08,22,01,35,12.30
2013,08,22,01,36,12.30
2013,08,22,01,37,12.20
2013,08,22,01,38,12.20
2013,08,22,01,39,12.20
2013,08,22,01,40,12.20
2013,08,22,01,41,12.20
2013,08,22,01,42,12.20
2013,08,22,01,43,12.20
2013,08,22,01,44,12.20
2013,08,22,01,45,12.20
2013,08,22,01,46,12.20
2013,08,22,01,47,12.20
2013,08,22,01,48,12.10
2013,08,22,01,49,12.10
2013,08,22,01,50,12.10
2013,08,22,01,51,12.10
2013,08,22,01,52,12.10
2013,08,22,01,53,12.10
2013,08,22,01,54,12.10
2013,08,22,01,55,12.10
2013,08,22,01,56,12.00
2013,08,22,01,57,12.00
2013,08,22,01,58,12.00
2013,08,22,01,59,12.00
2013,08,22,02,00,12.00
2013,08,22,02,01,11.90
2013,08,22,02,02,11.90
2013,08,22,02,03,11.90
2013,08,22,02,04,11.90
2013,08,22,02,05,11.90
2013,08,22,02,06,11.90
2013,08,22,02,07,11.90
2013,08,22,02,08,11.90
2013,08,22,02,09,11.90
2013,08,22,02,10,11.90
2013,08,22,02,11,11.80
2013,08,22,02,12,11.80
2013,08,22,02,13,11.80
2013,08,22,02,14,11.80
2013,08,22,02,15,11.80
2013,08,22,02,16,11.80
2013,08,22,02,17,11.80
2013,08,22,02,18,11.80
2013,08,22,02,19,11.80
2013,08,22,02,20,11.80
2013,08,22,02,21,11.80
2013,08,22,02,22,11.80
2013,08,22,02,23,11.70
2013,08,22,02,24,11.70
2013,08,22,02,25,11.70
2013,08,22,02,26,11.70
2013,08,22,02,27,11.70
2013,08,22,02,28,11.70
2013,08,22,02,29,11.70
2013,08,22,02,30,11.70
2013,08,22,02,31,11.70
2013,08,22,02,32,11.70
2013,08,22,02,33,11.70
2013,08,22,02,34,11.70
2013,08,22,02,35,11.60
2013,08,22,02,36,11.60
2013,08,22,02,37,11.60
2013,08,22,02,38,11.60
2013,08,22,02,39,11.60
2013,08,22,02,40,11.60
2013,08,22,02,41,11.60
2013,08,22,02,42,11.60
2013,08,22,02,43,11.60
2013,08,22,02,44,11.60
2013,08,22,02,45,11.60
2013,08,22,02,46,11.60
2013,08,22,02,47,11.60
2013,08,22,02,48,11.50
2013,08,22,02,49,11.50
2013,08,22,02,50,11.50
2013,08,22,02,51,11.50
2013,08,22,02,52,11.50
2013,08,22,02,53,11.50
2013,08,22,02,54,11.50
2013,08,22,02,55,11.50
2013,08,22,02,56,11.50
2013,08,22,02,57,11.40
2013,08,22,02,58,11.40
2013,08,22,02,59,11.40
2013,08,22,03,00,11.40
2013,08,22,03,01,11.40
2013,08,22,03,02,11.40
2013,08,22,03,03,11.40
2013,08,22,03,04,11.40
2013,08,22,03,05,11.40
2013,08,22,03,06,11.40
2013,08,22,03,07,11.40
2013,08,22,03,08,11.40
2013,08,22,03,09,11.40
2013,08,22,03,10,11.40
2013,08,22,03,11,11.40
2013,08,22,03,12,11.40
2013,08,22,03,13,11.40
2013,08,22,03,14,11.40
2013,08,22,03,15,11.40
2013,08,22,03,16,11.40
2013,08,22,03,17,11.40
2013,08,22,03,18,11.40
2013,08,22,03,19,11.50
2013,08,22,03,20,11.50
2013,08,22,03,21,11.60
2013,08,22,03,22,11.60
2013,08,22,03,23,11.60
2013,08,22,03,24,11.60
2013,08,22,03,25,11.60
2013,08,22,03,26,11.60
2013,08,22,03,27,11.60
2013,08,22,03,28,11.60
2013,08,22,03,29,11.50
2013,08,22,03,30,11.50
2013,08,22,03,31,11.50
2013,08,22,03,32,11.50
2013,08,22,03,33,11.50
2013,08,22,03,34,11.40
2013,08,22,03,35,11.40
2013,08,22,03,36,11.40
2013,08,22,03,37,11.40
2013,08,22,03,38,11.40
2013,08,22,03,39,11.30
2013,08,22,03,40,11.30
2013,08,22,03,41,11.30
2013,08,22,03,42,11.30
2013,08,22,03,43,11.30
2013,08,22,03,44,11.30
2013,08,22,03,45,11.20
2013,08,22,03,46,11.20
2013,08,22,03,47,11.20
2013,08,22,03,48,11.20
2013,08,22,03,49,11.20
2013,08,22,03,50,11.20
2013,08,22,03,51,11.20
2013,08,22,03,52,11.20
2013,08,22,03,53,11.10
2013,08,22,03,54,11.10
2013,08,22,03,55,11.10
2013,08,22,03,56,11.10
2013,08,22,03,57,11.10
2013,08,22,03,58,11.10
2013,08,22,03,59,11.10
2013,08,22,04,00,11.10
2013,08,22,04,01,11.10
2013,08,22,04,02,11.10
2013,08,22,04,03,11.00
2013,08,22,04,04,11.00
2013,08,22,04,05,11.00
2013,08,22,04,06,11.00
2013,08,22,04,07,10.90
2013,08,22,04,08,11.00
2013,08,22,04,09,10.90
2013,08,22,04,10,10.90
2013,08,22,04,11,10.90
2013,08,22,04,12,10.90
2013,08,22,04,13,10.90
2013,08,22,04,14,10.90
2013,08,22,04,15,10.90
2013,08,22,04,16,10.90
2013,08,22,04,17,10.90
2013,08,22,04,18,10.90
2013,08,22,04,19,10.90
2013,08,22,04,20,10.80
2013,08,22,04,21,10.80
2013,08,22,04,22,10.80
2013,08,22,04,23,10.80
2013,08,22,04,24,10.80
2013,08,22,04,25,10.80
2013,08,22,04,26,10.80
2013,08,22,04,27,10.80
2013,08,22,04,28,10.80
2013,08,22,04,29,10.80
2013,08,22,04,30,10.80
2013,08,22,04,31,10.80
2013,08,22,04,32,10.80
2013,08,22,04,33,10.80
2013,08,22,04,34,10.70
2013,08,22,04,35,10.70
2013,08,22,04,36,10.70
2013,08,22,04,37,10.70
2013,08,22,04,38,10.70
2013,08,22,04,39,10.70
2013,08,22,04,40,10.70
2013,08,22,04,41,10.70
2013,08,22,04,42,10.70
2013,08,22,04,43,10.70
2013,08,22,04,44,10.70
2013,08,22,04,45,10.70
2013,08,22,04,46,10.70
2013,08,22,04,47,10.70
2013,08,22,04,48,10.70
2013,08,22,04,49,10.70
2013,08,22,04,50,10.70
2013,08,22,04,51,10.70
2013,08,22,04,52,10.70
2013,08,22,04,53,10.70
2013,08,22,04,54,10.70
2013,08,22,04,55,10.60
2013,08,22,04,56,10.60
2013,08,22,04,57,10.60
2013,08,22,04,58,10.60
2013,08,22,04,59,10.60
2013,08,22,05,00,10.60
2013,08,22,05,01,10.60
2013,08,22,05,02,10.60
2013,08,22,05,03,10.60
2013,08,22,05,04,10.60
2013,08,22,05,05,10.60
2013,08,22,05,06,10.60
2013,08,22,05,07,10.50
2013,08,22,05,08,10.50
2013,08,22,05,09,10.50
2013,08,22,05,10,10.50
2013,08,22,05,11,10.50
2013,08,22,05,12,10.50
2013,08,22,05,13,10.50
2013,08,22,05,14,10.50
2013,08,22,05,15,10.40
2013,08,22,05,16,10.50
2013,08,22,05,17,10.40
2013,08,22,05,18,10.40
2013,08,22,05,19,10.50
2013,08,22,05,20,10.50
2013,08,22,05,21,10.50
2013,08,22,05,22,10.50
2013,08,22,05,23,10.50
2013,08,22,05,24,10.50
2013,08,22,05,25,10.50
2013,08,22,05,26,10.40
2013,08,22,05,27,10.40
2013,08,22,05,28,10.40
2013,08,22,05,29,10.40
2013,08,22,05,30,10.40
2013,08,22,05,31,10.40
2013,08,22,05,32,10.40
2013,08,22,05,33,10.40
2013,08,22,05,34,10.40
2013,08,22,05,35,10.40
2013,08,22,05,36,10.40
2013,08,22,05,37,10.40
2013,08,22,05,38,10.30
2013,08,22,05,39,10.30
2013,08,22,05,40,10.30
2013,08,22,05,41,10.30
2013,08,22,05,42,10.30
2013,08,22,05,43,10.30
2013,08,22,05,44,10.30
2013,08,22,05,45,10.30
2013,08,22,05,46,10.30
2013,08,22,05,47,10.30
2013,08,22,05,48,10.30
2013,08,22,05,49,10.30
2013,08,22,05,50,10.30
2013,08,22,05,51,10.30
2013,08,22,05,52,10.30
2013,08,22,05,53,10.30
2013,08,22,05,54,10.30
2013,08,22,05,55,10.30
2013,08,22,05,56,10.30
2013,08,22,05,57,10.30
2013,08,22,05,58,10.30
2013,08,22,05,59,10.30
2013,08,22,06,00,10.30
2013,08,22,06,01,10.30
2013,08,22,06,02,10.30
2013,08,22,06,03,10.30
2013,08,22,06,04,10.30
2013,08,22,06,05,10.30
2013,08,22,06,06,10.30
2013,08,22,06,07,10.20
2013,08,22,06,08,10.20
2013,08,22,06,09,10.20
2013,08,22,06,10,10.20
2013,08,22,06,11,10.20
2013,08,22,06,12,10.20
2013,08,22,06,13,10.20
2013,08,22,06,14,10.20
2013,08,22,06,15,10.20
2013,08,22,06,16,10.20
2013,08,22,06,17,10.20
2013,08,22,06,18,10.20
2013,08,22,06,19,10.20
2013,08,22,06,20,10.20
2013,08,22,06,21,10.20
2013,08,22,06,22,10.20
2013,08,22,06,23,10.20
2013,08,22,06,24,10.20
2013,08,22,06,25,10.20
2013,08,22,06,26,10.20
2013,08,22,06,27,10.20
2013,08,22,06,28,10.20
2013,08,22,06,29,10.20
2013,08,22,06,30,10.20
2013,08,22,06,31,10.30
2013,08,22,06,32,10.20
2013,08,22,06,33,10.20
2013,08,22,06,34,10.30
2013,08,22,06,35,10.30
2013,08,22,06,36,10.30
2013,08,22,06,37,10.30
2013,08,22,06,38,10.30
2013,08,22,06,39,10.30
2013,08,22,06,40,10.30
2013,08,22,06,41,10.30
2013,08,22,06,42,10.30
2013,08,22,06,43,10.30
2013,08,22,06,44,10.30
2013,08,22,06,45,10.30
2013,08,22,06,46,10.20
2013,08,22,06,47,10.30
2013,08,22,06,48,10.30
2013,08,22,06,49,10.20
2013,08,22,06,50,10.20
2013,08,22,06,51,10.30
2013,08,22,06,52,10.20
2013,08,22,06,53,10.20
2013,08,22,06,54,10.20
2013,08,22,06,55,10.20
2013,08,22,06,56,10.20
2013,08,22,06,57,10.20
2013,08,22,06,58,10.20
2013,08,22,06,59,10.30
2013,08,22,07,00,10.30
2013,08,22,07,01,10.30
2013,08,22,07,02,10.30
2013,08,22,07,03,10.30
2013,08,22,07,04,10.30
2013,08,22,07,05,10.30
2013,08,22,07,06,10.30
2013,08,22,07,07,10.30
2013,08,22,07,08,10.30
2013,08,22,07,09,10.30
2013,08,22,07,10,10.30
2013,08,22,07,11,10.40
2013,08,22,07,12,10.40
2013,08,22,07,13,10.40
2013,08,22,07,14,10.40
2013,08,22,07,15,10.40
2013,08,22,07,16,10.50
2013,08,22,07,17,10.50
2013,08,22,07,18,10.60
2013,08,22,07,19,10.60
2013,08,22,07,20,10.60
2013,08,22,07,21,10.70
2013,08,22,07,22,10.70
2013,08,22,07,23,10.70
2013,08,22,07,24,10.80
2013,08,22,07,25,10.80
2013,08,22,07,26,10.80
2013,08,22,07,27,10.90
2013,08,22,07,28,10.90
2013,08,22,07,29,10.90
2013,08,22,07,30,11.00
2013,08,22,07,31,11.00
2013,08,22,07,32,11.00
2013,08,22,07,33,11.10
2013,08,22,07,34,11.10
2013,08,22,07,35,11.10
2013,08,22,07,36,11.20
2013,08,22,07,37,11.20
2013,08,22,07,38,11.30
2013,08,22,07,39,11.30
2013,08,22,07,40,11.40
2013,08,22,07,41,11.50
2013,08,22,07,42,11.50
2013,08,22,07,43,11.60
2013,08,22,07,44,11.70
2013,08,22,07,45,11.80
2013,08,22,07,46,11.80
2013,08,22,07,47,11.90
2013,08,22,07,48,12.00
2013,08,22,07,49,12.10
2013,08,22,07,50,12.10
2013,08,22,07,51,12.20
2013,08,22,07,52,12.30
2013,08,22,07,53,12.40
2013,08,22,07,54,12.40
2013,08,22,07,55,12.50
2013,08,22,07,56,12.50
2013,08,22,07,57,12.60
2013,08,22,07,58,12.70
2013,08,22,07,59,12.70
2013,08,22,08,00,12.80
2013,08,22,08,01,12.80
2013,08,22,08,02,12.90
2013,08,22,08,03,12.90
2013,08,22,08,04,13.00
2013,08,22,08,05,13.10
2013,08,22,08,06,13.10
2013,08,22,08,07,13.20
2013,08,22,08,08,13.30
2013,08,22,08,09,13.40
2013,08,22,08,10,13.40
2013,08,22,08,11,13.50
2013,08,22,08,12,13.60
2013,08,22,08,13,13.70
2013,08,22,08,14,13.70
2013,08,22,08,15,13.80
2013,08,22,08,16,13.80
2013,08,22,08,17,13.90
2013,08,22,08,18,14.00
2013,08,22,08,19,14.00
2013,08,22,08,20,14.10
2013,08,22,08,21,14.20
2013,08,22,08,22,14.20
2013,08,22,08,23,14.30
2013,08,22,08,24,14.40
2013,08,22,08,25,14.40
2013,08,22,08,26,14.50
2013,08,22,08,27,14.60
2013,08,22,08,28,14.60
2013,08,22,08,29,14.70
2013,08,22,08,30,14.70
2013,08,22,08,31,14.80
2013,08,22,08,32,14.80
2013,08,22,08,33,14.90
2013,08,22,08,34,14.90
2013,08,22,08,35,15.00
2013,08,22,08,36,15.10
2013,08,22,08,37,15.10
2013,08,22,08,38,15.20
2013,08,22,08,39,15.30
2013,08,22,08,40,15.40
2013,08,22,08,41,15.40
2013,08,22,08,42,15.50
2013,08,22,08,43,15.60
2013,08,22,08,44,15.60
2013,08,22,08,45,15.70
2013,08,22,08,46,15.80
2013,08,22,08,47,15.80
2013,08,22,08,48,15.90
2013,08,22,08,49,16.00
2013,08,22,08,50,16.10
2013,08,22,08,51,16.20
2013,08,22,08,52,16.30
2013,08,22,08,53,16.30
2013,08,22,08,54,16.40
2013,08,22,08,55,16.40
2013,08,22,08,56,16.50
2013,08,22,08,57,16.60
2013,08,22,08,58,16.70
2013,08,22,08,59,16.80
2013,08,22,09,00,16.80
2013,08,22,09,01,16.90
2013,08,22,09,02,17.00
2013,08,22,09,03,17.10
2013,08,22,09,04,17.10
2013,08,22,09,05,17.20
2013,08,22,09,06,17.30
2013,08,22,09,07,17.40
2013,08,22,09,08,17.40
2013,08,22,09,09,17.50
2013,08,22,09,10,17.60
2013,08,22,09,11,17.60
2013,08,22,09,12,17.70
2013,08,22,09,13,17.70
2013,08,22,09,14,17.80
2013,08,22,09,15,17.90
2013,08,22,09,16,17.90
2013,08,22,09,17,18.00
2013,08,22,09,18,18.10
2013,08,22,09,19,18.20
2013,08,22,09,20,18.20
2013,08,22,09,21,18.30
2013,08,22,09,22,18.40
2013,08,22,09,23,18.40
2013,08,22,09,24,18.50
2013,08,22,09,25,18.60
2013,08,22,09,26,18.60
2013,08,22,09,27,18.70
2013,08,22,09,28,18.70
2013,08,22,09,29,18.80
2013,08,22,09,30,18.80
2013,08,22,09,31,18.90
2013,08,22,09,32,19.00
2013,08,22,09,33,19.00
2013,08,22,09,34,19.10
2013,08,22,09,35,19.20
2013,08,22,09,36,19.30
2013,08,22,09,37,19.40
2013,08,22,09,38,19.40
2013,08,22,09,39,19.50
2013,08,22,09,40,19.60
2013,08,22,09,41,19.60
2013,08,22,09,42,19.70
2013,08,22,09,43,19.70
2013,08,22,09,44,19.80
2013,08,22,09,45,19.80
2013,08,22,09,46,19.90
2013,08,22,09,47,19.90
2013,08,22,09,48,19.90
2013,08,22,09,49,20.00
2013,08,22,09,50,20.00
2013,08,22,09,51,20.10
2013,08,22,09,52,20.20
2013,08,22,09,53,20.20
2013,08,22,09,54,20.20
2013,08,22,09,55,20.30
2013,08,22,09,56,20.30
2013,08,22,09,57,20.40
2013,08,22,09,58,20.50
2013,08,22,09,59,20.50
2013,08,22,10,00,20.60
2013,08,22,10,01,20.60
2013,08,22,10,02,20.70
2013,08,22,10,03,20.70
2013,08,22,10,04,20.80
2013,08,22,10,05,20.80
2013,08,22,10,06,20.90
2013,08,22,10,07,20.90
2013,08,22,10,08,21.00
2013,08,22,10,09,21.10
2013,08,22,10,10,21.10
2013,08,22,10,11,21.20
2013,08,22,10,12,21.30
2013,08,22,10,13,21.30
2013,08,22,10,14,21.40
2013,08,22,10,15,21.40
2013,08,22,10,16,21.50
2013,08,22,10,17,21.60
2013,08,22,10,18,21.70
2013,08,22,10,19,21.80
2013,08,22,10,20,21.80
2013,08,22,10,21,21.80
2013,08,22,10,22,21.90
2013,08,22,10,23,21.90
2013,08,22,10,24,21.90
2013,08,22,10,25,21.90
2013,08,22,10,26,21.90
2013,08,22,10,27,22.00
2013,08,22,10,28,22.00
2013,08,22,10,29,22.10
2013,08,22,10,30,22.10
2013,08,22,10,31,22.10
2013,08,22,10,32,22.10
2013,08,22,10,33,22.20
2013,08,22,10,34,22.20
2013,08,22,10,35,22.20
2013,08,22,10,36,22.10
2013,08,22,10,37,22.10
2013,08,22,10,38,22.10
2013,08,22,10,39,22.10
2013,08,22,10,40,22.10
2013,08,22,10,41,22.10
2013,08,22,10,42,22.00
2013,08,22,10,43,22.10
2013,08,22,10,44,22.10
2013,08,22,10,45,22.10
2013,08,22,10,46,22.10
2013,08,22,10,47,22.10
2013,08,22,10,48,22.20
2013,08,22,10,49,22.20
2013,08,22,10,50,22.30
2013,08,22,10,51,22.40
2013,08,22,10,52,22.50
2013,08,22,10,53,22.60
2013,08,22,10,54,22.60
2013,08,22,10,55,22.70
2013,08,22,10,56,22.70
2013,08,22,10,57,22.70
2013,08,22,10,58,22.70
2013,08,22,10,59,22.80
2013,08,22,11,00,22.90
2013,08,22,11,01,22.90
2013,08,22,11,02,23.00
2013,08,22,11,03,23.00
2013,08,22,11,04,23.10
2013,08,22,11,05,23.20
2013,08,22,11,06,23.40
2013,08,22,11,07,23.50
2013,08,22,11,08,23.60
2013,08,22,11,09,23.80
2013,08,22,11,10,23.90
2013,08,22,11,11,24.00
2013,08,22,11,12,24.10
2013,08,22,11,13,24.10
2013,08,22,11,14,24.20
2013,08,22,11,15,24.20
2013,08,22,11,16,24.30
2013,08,22,11,17,24.30
2013,08,22,11,18,24.30
2013,08,22,11,19,24.30
2013,08,22,11,20,24.40
2013,08,22,11,21,24.40
2013,08,22,11,22,24.40
2013,08,22,11,23,24.50
2013,08,22,11,24,24.50
2013,08,22,11,25,24.60
2013,08,22,11,26,24.60
2013,08,22,11,27,24.70
2013,08,22,11,28,24.70
2013,08,22,11,29,24.80
2013,08,22,11,30,24.80
2013,08,22,11,31,24.90
2013,08,22,11,32,24.90
2013,08,22,11,33,25.00
2013,08,22,11,34,25.00
2013,08,22,11,35,25.10
2013,08,22,11,36,25.20
2013,08,22,11,37,25.30
2013,08,22,11,38,25.50
2013,08,22,11,39,25.60
2013,08,22,11,40,25.70
2013,08,22,11,41,25.80
2013,08,22,11,42,25.90
2013,08,22,11,43,25.90
2013,08,22,11,44,26.00
2013,08,22,11,45,26.10
2013,08,22,11,46,26.20
2013,08,22,11,47,26.20
2013,08,22,11,48,26.30
2013,08,22,11,49,26.30
2013,08,22,11,50,26.40
2013,08,22,11,51,26.50
2013,08,22,11,52,26.50
2013,08,22,11,53,26.60
2013,08,22,11,54,26.60
2013,08,22,11,55,26.60
2013,08,22,11,56,26.60
2013,08,22,11,57,26.70
2013,08,22,11,58,26.70
2013,08,22,11,59,26.70
2013,08,22,12,00,26.70
2013,08,22,12,01,26.70
2013,08,22,12,02,26.70
2013,08,22,12,03,26.60
2013,08,22,12,04,26.60
2013,08,22,12,05,26.60
2013,08,22,12,06,26.50
2013,08,22,12,07,26.50
2013,08,22,12,08,26.50
2013,08,22,12,09,26.60
2013,08,22,12,10,26.60
2013,08,22,12,11,26.60
2013,08,22,12,12,26.70
2013,08,22,12,13,26.70
2013,08,22,12,14,26.80
2013,08,22,12,15,26.90
2013,08,22,12,16,27.00
2013,08,22,12,17,27.10
2013,08,22,12,18,27.20
2013,08,22,12,19,27.30
2013,08,22,12,20,27.30
2013,08,22,12,21,27.30
2013,08,22,12,22,27.30
2013,08,22,12,23,27.30
2013,08,22,12,24,27.30
2013,08,22,12,25,27.30
2013,08,22,12,26,27.30
2013,08,22,12,27,27.30
2013,08,22,12,28,27.30
2013,08,22,12,29,27.30
2013,08,22,12,30,27.30
2013,08,22,12,31,27.30
2013,08,22,12,32,27.30
2013,08,22,12,33,27.30
2013,08,22,12,34,27.30
2013,08,22,12,35,27.30
2013,08,22,12,36,27.30
2013,08,22,12,37,27.20
2013,08,22,12,38,27.20
2013,08,22,12,39,27.10
2013,08,22,12,40,27.10
2013,08,22,12,41,27.00
2013,08,22,12,42,26.90
2013,08,22,12,43,26.80
2013,08,22,12,44,26.70
2013,08,22,12,45,26.50
2013,08,22,12,46,26.50
2013,08,22,12,47,26.40
2013,08,22,12,48,26.20
2013,08,22,12,49,26.20
2013,08,22,12,50,26.10
2013,08,22,12,51,25.90
2013,08,22,12,52,25.90
2013,08,22,12,53,25.80
2013,08,22,12,54,25.80
2013,08,22,12,55,25.70
2013,08,22,12,56,25.70
2013,08,22,12,57,25.60
2013,08,22,12,58,25.60
2013,08,22,12,59,25.60
2013,08,22,13,00,25.50
2013,08,22,13,01,25.50
2013,08,22,13,02,25.40
2013,08,22,13,03,25.40
2013,08,22,13,04,25.40
2013,08,22,13,05,25.40
2013,08,22,13,06,25.40
2013,08,22,13,07,25.50
2013,08,22,13,08,25.50
2013,08,22,13,09,25.60
2013,08,22,13,10,25.60
2013,08,22,13,11,25.60
2013,08,22,13,12,25.70
2013,08,22,13,13,25.70
2013,08,22,13,14,25.70
2013,08,22,13,15,25.70
2013,08,22,13,16,25.80
2013,08,22,13,17,25.80
2013,08,22,13,18,25.80
2013,08,22,13,19,25.80
2013,08,22,13,20,25.80
2013,08,22,13,21,25.80
2013,08,22,13,22,25.80
2013,08,22,13,23,25.80
2013,08,22,13,24,25.80
2013,08,22,13,25,25.80
2013,08,22,13,26,25.80
2013,08,22,13,27,25.70
2013,08,22,13,28,25.70
2013,08,22,13,29,25.80
2013,08,22,13,30,25.80
2013,08,22,13,31,25.70
2013,08,22,13,32,25.70
2013,08,22,13,33,25.70
2013,08,22,13,34,25.60
2013,08,22,13,35,25.60
2013,08,22,13,36,25.60
2013,08,22,13,37,25.60
2013,08,22,13,38,25.60
2013,08,22,13,39,25.60
2013,08,22,13,40,25.60
2013,08,22,13,41,25.60
2013,08,22,13,42,25.60
2013,08,22,13,43,25.50
2013,08,22,13,44,25.50
2013,08,22,13,45,25.40
2013,08,22,13,46,25.40
2013,08,22,13,47,25.30
2013,08,22,13,48,25.30
2013,08,22,13,49,25.20
2013,08,22,13,50,25.10
2013,08,22,13,51,25.10
2013,08,22,13,52,25.00
2013,08,22,13,53,25.00
2013,08,22,13,54,25.10
2013,08,22,13,55,25.10
2013,08,22,13,56,25.10
2013,08,22,13,57,25.00
2013,08,22,13,58,25.00
2013,08,22,13,59,24.90
2013,08,22,14,00,24.90
2013,08,22,14,01,24.90
2013,08,22,14,02,24.90
2013,08,22,14,03,24.90
2013,08,22,14,04,25.00
2013,08,22,14,05,25.00
2013,08,22,14,06,25.10
2013,08,22,14,07,25.10
2013,08,22,14,08,25.10
2013,08,22,14,09,25.20
2013,08,22,14,10,25.20
2013,08,22,14,11,25.20
2013,08,22,14,12,25.30
2013,08,22,14,13,25.30
2013,08,22,14,14,25.30
2013,08,22,14,15,25.30
2013,08,22,14,16,25.30
2013,08,22,14,17,25.30
2013,08,22,14,18,25.40
2013,08,22,14,19,25.40
2013,08,22,14,20,25.50
2013,08,22,14,21,25.60
2013,08,22,14,22,25.60
2013,08,22,14,23,25.60
2013,08,22,14,24,25.70
2013,08,22,14,25,25.70
2013,08,22,14,26,25.70
2013,08,22,14,27,25.80
2013,08,22,14,28,25.80
2013,08,22,14,29,25.90
2013,08,22,14,30,25.90
2013,08,22,14,31,26.00
2013,08,22,14,32,26.00
2013,08,22,14,33,26.10
2013,08,22,14,34,26.20
2013,08,22,14,35,26.30
2013,08,22,14,36,26.30
2013,08,22,14,37,26.40
2013,08,22,14,38,26.50
2013,08,22,14,39,26.50
2013,08,22,14,40,26.60
2013,08,22,14,41,26.70
2013,08,22,14,42,26.80
2013,08,22,14,43,26.80
2013,08,22,14,44,26.80
2013,08,22,14,45,26.90
2013,08,22,14,46,26.90
2013,08,22,14,47,27.00
2013,08,22,14,48,27.00
2013,08,22,14,49,27.00
2013,08,22,14,50,27.00
2013,08,22,14,51,27.00
2013,08,22,14,52,26.90
2013,08,22,14,53,26.90
2013,08,22,14,54,26.90
2013,08,22,14,55,26.80
2013,08,22,14,56,26.80
2013,08,22,14,57,26.80
2013,08,22,14,58,26.80
2013,08,22,14,59,26.80
2013,08,22,15,00,26.80
2013,08,22,15,01,26.80
2013,08,22,15,02,26.80
2013,08,22,15,03,26.70
2013,08,22,15,04,26.70
2013,08,22,15,05,26.60
2013,08,22,15,06,26.50
2013,08,22,15,07,26.40
2013,08,22,15,08,26.30
2013,08,22,15,09,26.30
2013,08,22,15,10,26.20
2013,08,22,15,11,26.10
2013,08,22,15,12,26.00
2013,08,22,15,13,25.90
2013,08,22,15,14,25.80
2013,08,22,15,15,25.70
2013,08,22,15,16,25.60
2013,08,22,15,17,25.60
2013,08,22,15,18,25.50
2013,08,22,15,19,25.50
2013,08,22,15,20,25.50
2013,08,22,15,21,25.50
2013,08,22,15,22,25.50
2013,08,22,15,23,25.50
2013,08,22,15,24,25.60
2013,08,22,15,25,25.60
2013,08,22,15,26,25.70
2013,08,22,15,27,25.70
2013,08,22,15,28,25.70
2013,08,22,15,29,25.70
2013,08,22,15,30,25.70
2013,08,22,15,31,25.70
2013,08,22,15,32,25.60
2013,08,22,15,33,25.60
2013,08,22,15,34,25.60
2013,08,22,15,35,25.70
2013,08,22,15,36,25.70
2013,08,22,15,37,25.60
2013,08,22,15,38,25.60
2013,08,22,15,39,25.60
2013,08,22,15,40,25.60
2013,08,22,15,41,25.50
2013,08,22,15,42,25.50
2013,08,22,15,43,25.50
2013,08,22,15,44,25.40
2013,08,22,15,45,25.40
2013,08,22,15,46,25.40
2013,08,22,15,47,25.40
2013,08,22,15,48,25.40
2013,08,22,15,49,25.40
2013,08,22,15,50,25.40
2013,08,22,15,51,25.40
2013,08,22,15,52,25.40
2013,08,22,15,53,25.40
2013,08,22,15,54,25.40
2013,08,22,15,55,25.50
2013,08,22,15,56,25.50
2013,08,22,15,57,25.60
2013,08,22,15,58,25.60
2013,08,22,15,59,25.60
2013,08,22,16,00,25.70
2013,08,22,16,01,25.70
2013,08,22,16,02,25.70
2013,08,22,16,03,25.70
2013,08,22,16,04,25.80
2013,08,22,16,05,25.80
2013,08,22,16,06,25.90
2013,08,22,16,07,25.90
2013,08,22,16,08,26.00
2013,08,22,16,09,26.00
2013,08,22,16,10,26.10
2013,08,22,16,11,26.20
2013,08,22,16,12,26.30
2013,08,22,16,13,26.40
2013,08,22,16,14,26.50
2013,08,22,16,15,26.60
2013,08,22,16,16,26.60
2013,08,22,16,17,26.70
2013,08,22,16,18,26.70
2013,08,22,16,19,26.80
2013,08,22,16,20,26.80
2013,08,22,16,21,26.90
2013,08,22,16,22,26.90
2013,08,22,16,23,27.00
2013,08,22,16,24,27.00
2013,08,22,16,25,27.10
2013,08,22,16,26,27.10
2013,08,22,16,27,27.10
2013,08,22,16,28,27.10
2013,08,22,16,29,27.10
2013,08,22,16,30,27.10
2013,08,22,16,31,27.10
2013,08,22,16,32,27.20
2013,08,22,16,33,27.20
2013,08,22,16,34,27.30
2013,08,22,16,35,27.30
2013,08,22,16,36,27.30
2013,08,22,16,37,27.30
2013,08,22,16,38,27.30
2013,08,22,16,39,27.30
2013,08,22,16,40,27.30
2013,08,22,16,41,27.30
2013,08,22,16,42,27.40
2013,08,22,16,43,27.40
2013,08,22,16,44,27.50
2013,08,22,16,45,27.60
2013,08,22,16,46,27.60
2013,08,22,16,47,27.70
2013,08,22,16,48,27.70
2013,08,22,16,49,27.80
2013,08,22,16,50,27.80
2013,08,22,16,51,27.90
2013,08,22,16,52,27.90
2013,08,22,16,53,27.90
2013,08,22,16,54,27.90
2013,08,22,16,55,27.90
2013,08,22,16,56,27.90
2013,08,22,16,57,28.00
2013,08,22,16,58,28.00
2013,08,22,16,59,28.00
2013,08,22,17,00,28.00
2013,08,22,17,01,28.00
2013,08,22,17,02,28.00
2013,08,22,17,03,28.00
2013,08,22,17,04,27.90
2013,08,22,17,05,27.90
2013,08,22,17,06,27.90
2013,08,22,17,07,27.90
2013,08,22,17,08,27.80
2013,08,22,17,09,27.80
2013,08,22,17,10,27.80
2013,08,22,17,11,27.70
2013,08,22,17,12,27.70
2013,08,22,17,13,27.70
2013,08,22,17,14,27.70
2013,08,22,17,15,27.60
2013,08,22,17,16,27.60
2013,08,22,17,17,27.60
2013,08,22,17,18,27.60
2013,08,22,17,19,27.60